CAPE
1140 1134 1001 1008 835 805 597 348 192 51 5 3 1 51 67 58 33 6 45 21 20 70 38 30 40 34 44 34 27 33 40 18 5 10 6 7 7 21 18 7 4 1 0
1137 931 904 807 738 737 579 464 268 43 13 10 3 38 73 74 21 29 17 1 0 18 45 33 43 40 52 36 42 42 24 20 11 9 8 17 11 20 17 3 0 0 0
1073 775 803 754 658 605 609 358 291 50 8 28 15 40 69 40 64 21 9 0 0 11 30 51 57 69 46 33 18 24 21 34 22 11 9 12 11 3 7 0 0 0 0
1149 900 740 586 368 531 432 401 246 127 18 22 8 35 82 21 51 33 0 0 0 3 21 38 55 61 59 31 14 15 21 25 18 14 16 9 11 0 0 0 0 0 0
954 842 632 519 478 391 332 269 196 88 30 33 78 67 60 4 35 26 0 0 0 0 3 30 35 28 40 48 27 15 14 21 22 13 7 11 10 7 1 1 0 0 0
904 953 706 495 316 283 96 78 32 57 22 36 129 121 7 22 15 13 25 17 15 9 6 7 13 13 20 44 38 23 21 12 14 6 7 9 9 9 7 2 2 2 0
759 851 518 308 190 80 55 1 11 31 23 33 4 24 0 17 31 45 33 30 16 16 24 25 13 3 6 24 30 26 20 39 24 22 19 20 21 17 15 9 3 1 1
798 640 353 15 0 0 1 2 2 7 7 8 2 12 0 0 11 30 18 33 23 3 25 26 16 2 0 0 0 21 9 36 33 13 34 35 28 23 15 2 6 5 5
461 538 141 0 0 0 2 1 0 0 0 4 0 0 2 7 12 35 32 46 26 4 1 0 13 3 1 0 0 0 2 9 30 40 29 31 26 28 17 2 3 3 4
425 415 103 0 0 2 1 1 0 0 0 1 1 12 0 0 1 16 35 37 34 32 4 0 0 4 9 0 0 0 0 0 0 7 72 52 35 15 10 0 0 0 1
308 358 127 2 1 1 1 1 0 0 0 0 0 0 1 0 15 20 30 9 26 0 10 7 0 6 0 11 2 0 0 0 0 0 0 45 121 109 70 67 34 23 22
259 207 98 3 1 1 1 1 1 1 0 2 0 0 0 0 0 0 22 42 29 3 4 6 11 16 7 3 0 0 0 0 0 0 0 1 52 144 177 152 137 140 128
116 135 87 47 9 1 2 0 2 8 0 1 0 0 3 8 13 9 13 22 8 15 11 0 3 0 22 4 0 0 0 0 0 0 0 0 5 26 57 140 232 272 277
44 9 111 17 3 1 1 1 1 0 0 0 0 0 0 0 18 29 26 37 0 0 0 1 7 21 0 2 5 9 0 0 0 0 0 0 0 0 0 1 34 83 148
18 0 24 59 9 3 3 1 1 2 1 0 0 0 0 0 0 0 0 5 0 0 0 0 5 12 20 25 25 4 0 1 0 0 0 0 0 0 0 0 0 0 0
9 0 1 15 32 10 1 0 0 0 0 0 0 0 0 0 0 0 0 0 0 0 0 0 1 21 38 51 40 16 28 30 4 0 0 0 0 0 0 0 0 0 0
0 0 3 10 10 13 2 0 1 0 0 0 0 1 0 0 0 0 0 0 0 0 0 0 0 0 2 32 50 7 33 45 30 0 0 0 0 0 0 0 0 0 0
0 1 6 2 3 1 0 1 1 1 1 2 2 0 0 0 0 0 0 0 0 0 0 0 0 0 0 0 5 28 27 21 55 71 0 0 0 0 0 0 0 0 0
2 4 6 7 4 2 0 0 0 0 0 0 0 0 0 0 1 1 0 1 0 0 0 0 0 0 0 0 4 7 7 10 10 18 24 3 0 0 0 0 0 0 0
4 2 5 7 6 6 4 2 1 0 0 0 0 0 0 0 0 0 0 0 0 0 0 0 0 0 0 0 10 8 0 0 8 29 6 1 0 0 0 0 0 0 0
5 3 5 1 2 4 1 4 3 2 6 5 6 5 1 1 0 0 5 7 16 8 9 6 2 0 0 0 0 0 0 1 0 2 5 6 1 1 2 1 2 2 1
3 5 5 7 1 0 0 0 0 2 0 1 0 0 0 0 0 0 0 0 24 17 16 0 0 0 0 0 0 0 0 6 0 0 0 0 0 2 2 3 3 3 3
7 4 3 0 0 0 0 0 0 0 0 0 0 0 0 0 0 0 0 0 0 0 0 0 0 0 0 0 0 0 0 0 0 0 0 0 0 1 2 4 6 6 5
1 2 1 0 0 0 0 0 0 0 0 0 0 0 0 0 0 0 0 0 1 1 1 0 0 1 0 0 0 0 0 0 0 0 0 1 0 0 0 0 3 6 5
1 2 2 2 1 1 0 0 0 0 1 1 1 1 0 0 0 0 0 0 1 1 3 3 2 3 2 1 0 0 0 0 1 0 0 0 0 0 1 1 0 3 2
1 1 0 1 1 1 2 0 0 1 1 1 1 1 1 1 0 0 0 0 0 1 0 0 0 0 0 0 0 0 0 0 0 0 0 0 0 0 0 0 2 1 2
CIN
-6 -6 -6 -11 -5 -9 -13 -15 -24 -64 -116 -79 -57 -7 -29 -27 -39 -93 -83 -51 -60 -8 0 0 0 0 0 -1 -0 -3 -3 -2 0 0 -0 -1 -0 -0 -0 -0 -0 0 -0
-7 -7 -8 -10 -4 -9 -8 -9 -16 -62 -103 -73 -53 -32 -34 -22 -53 -53 -63 -23 0 -7 -1 0 0 0 0 -0 -13 -2 -2 -0 -0 0 -1 -0 -0 -1 -0 -0 0 0 0
-5 -6 -5 -5 -6 -9 -4 -7 -7 -29 -47 -35 -20 -21 -37 -57 -38 -22 -64 0 -0 -10 -10 -2 -0 0 -0 0 -5 -6 -2 -1 0 0 0 -0 -0 -1 -0 0 0 0 0
-5 -4 -9 -6 -18 -8 -13 -11 -12 -0 -19 -30 -45 -40 -9 -34 -27 -35 0 0 0 -9 -14 -8 -4 -1 -0 0 -4 -2 -0 -0 -0 -0 0 0 -0 0 0 0 0 0 0
-11 -7 -2 -7 -3 -2 -3 -1 -0 -6 -11 -25 -1 -16 -1 -19 -34 -43 0 0 -1 0 -15 -13 -9 -7 -6 -1 -1 -0 0 0 -0 -0 0 0 0 -0 0 0 -0 0 0
-19 -3 -2 -5 -8 -9 -25 -22 -28 -10 -15 -5 -3 0 -9 -35 -30 -38 -36 -30 -22 -18 -22 -29 -28 -24 -17 -12 -3 -0 -1 0 0 -0 0 0 0 0 -0 0 0 0 0
-39 -6 -12 -35 -16 -20 -25 0 -31 -30 -1 -5 -12 -11 -0 -54 -53 -51 -51 -31 -25 -36 -25 -30 -38 -24 -29 -19 -8 -2 -0 0 0 0 0 -0 0 0 -0 0 0 0 0
-31 -18 -42 -121 0 -2 -0 -0 -0 -43 -13 -5 -1 -38 0 -7 -49 -50 -32 -15 -38 -52 -28 -19 -30 -13 0 0 -4 -6 -1 -1 -1 -0 0 -0 -0 -0 0 0 0 0 -0
-94 -22 -128 0 0 -0 0 -2 0 0 0 -7 0 0 -12 -8 -25 -43 -43 -39 -11 -37 -11 -2 -12 -13 -14 0 0 0 -4 -9 -5 -1 -1 -1 -1 -0 0 -0 -0 0 0
-111 -51 -129 0 0 -0 0 -0 -0 0 0 -18 -35 -22 0 0 -5 -3 -11 -33 -15 -11 -43 0 -5 -34 -16 -1 0 0 0 0 0 -15 -27 -26 -35 -1 -0 0 0 0 0
-157 -91 -105 -121 -0 -0 -0 -0 -0 0 0 -0 -0 0 -74 0 -94 -49 -13 -12 -38 0 -29 -37 -0 -41 -1 -23 -43 0 0 0 0 0 0 -51 -19 -22 -28 -30 -41 -46 -57
-207 -154 -145 -100 -0 -0 0 -0 -0 -0 -0 -21 -15 0 -13 0 0 0 -3 -34 -63 -63 -89 -75 -32 -26 -38 -44 0 0 0 0 0 0 0 -101 -73 -12 -6 -2 -2 -5 -9
-249 -204 -147 -149 -0 -0 -0 -0 -0 -0 -0 -0 0 -14 -64 -58 -31 -21 -15 -34 -50 -39 -40 0 -29 -7 -35 -45 0 0 0 0 0 0 0 0 -229 -149 -84 -22 -1 0 -1
-298 -266 -159 -120 -11 -0 -0 -0 -0 -0 0 -2 0 0 -31 -46 -10 -10 -22 -30 0 0 -7 -14 -39 -29 -12 -38 -37 -51 0 0 0 0 0 0 0 0 0 -19 -107 -53 -9
-344 0 -195 -143 -1 -1 -0 -0 -0 0 0 0 0 0 0 0 0 0 0 -74 -5 0 0 0 -51 -37 -27 -60 -68 -73 -19 -19 0 0 0 0 0 0 0 0 0 0 0
-260 0 -9 -11 -13 -0 -4 -0 0 -0 0 0 -0 -0 0 0 0 0 -25 0 0 0 0 0 -36 -33 -44 -27 -61 -111 -99 -107 -118 0 0 0 0 0 0 0 0 0 0
0 0 -15 -7 -16 -11 -5 0 0 0 0 0 0 0 0 0 0 0 0 0 0 0 0 0 0 0 -18 -46 -27 -24 -63 -67 -95 0 0 0 0 0 0 0 0 0 0
0 -13 -7 -17 -5 -1 -0 0 0 0 0 0 0 -0 -0 -0 0 -0 -0 -0 0 0 0 0 0 0 0 0 -57 -44 -52 -53 -48 -29 0 0 0 0 0 0 0 0 0
-7 -6 -5 -6 -1 -4 0 0 0 0 0 0 -0 0 -0 0 0 0 0 0 0 0 0 0 0 0 0 0 -55 -51 -65 -72 -75 -48 -46 -78 0 0 0 0 0 0 0
-8 -10 -4 -5 -6 -2 -1 -0 0 0 0 0 -0 -0 -0 0 -0 0 0 -0 -0 0 -0 -0 -0 0 0 -36 -41 -23 -5 -21 -42 -27 -51 -33 0 0 0 0 0 0 0
-8 -8 -7 -16 -11 -5 -1 -2 -4 -2 -1 -1 -6 -2 -9 -10 0 0 -2 -1 -1 -2 -4 -2 -3 0 0 0 0 0 -11 -43 -13 -8 -6 -8 0 0 0 0 0 0 0
-7 -8 -4 -6 -14 0 0 0 0 -12 -18 -8 -2 0 -12 0 0 0 0 0 -3 -3 -4 -9 -0 -0 0 -0 -0 0 -0 -12 -0 0 0 0 0 0 0 0 0 0 0
-9 -7 -12 0 0 0 0 0 0 0 0 0 0 0 0 0 0 0 0 0 0 0 0 0 0 -21 0 0 0 0 0 0 0 0 0 0 0 0 0 0 0 0 0
0 0 0 0 0 0 0 0 0 0 0 0 0 0 0 0 0 0 0 0 0 0 0 0 0 0 0 0 0 0 0 0 0 0 0 0 0 0 0 0 0 0 0
0 0 0 0 0 0 0 0 0 0 0 0 0 0 0 0 0 0 0 0 0 0 0 0 0 0 0 0 0 0 0 0 0 0 0 0 0 0 0 0 -0 0 0
0 0 0 0 0 0 0 0 0 0 0 0 0 0 0 0 0 0 0 0 0 0 0 0 -0 0 0 0 0 0 0 0 0 0 0 0 0 0 0 0 -0 -0 -0
Wind_Speed
4 5 4 4 4 4 4 5 7 6 7 7 7 7 11 8 6 6 7 13 15 16 17 17 18 17 17 17 17 17 15 15 15 15 14 13 12 11 11 11 10 10 9
4 5 4 5 4 5 5 5 7 6 6 6 8 8 11 10 8 9 7 8 15 14 16 18 18 18 17 17 16 15 14 13 14 15 13 12 12 11 11 10 9 9 8
7 6 4 4 4 5 6 5 6 6 6 6 8 8 10 9 10 13 10 8 9 13 12 15 17 18 18 18 17 15 14 12 13 14 14 13 13 11 11 10 10 9 9
7 6 5 4 4 4 4 5 6 6 7 7 6 7 8 8 12 12 11 9 8 7 8 13 16 17 17 18 18 17 15 15 14 13 14 14 14 13 12 12 11 10 9
7 6 6 6 6 5 5 6 6 7 6 7 6 10 6 9 11 10 11 12 11 8 6 9 13 13 15 17 17 17 17 15 15 15 15 14 14 14 13 12 12 12 11
7 6 5 6 7 5 5 6 7 7 8 7 7 7 4 4 9 9 11 10 10 10 9 10 7 8 14 16 17 17 16 17 17 16 16 16 15 14 14 14 13 13 12
11 7 5 5 4 4 6 7 6 8 7 8 5 5 1 4 5 11 6 8 7 8 6 10 7 6 6 13 16 17 17 17 17 16 15 16 15 14 13 14 15 14 15
8 8 6 6 6 4 6 8 8 4 3 8 7 5 3 3 4 4 5 6 11 8 9 10 10 9 9 7 8 16 18 18 18 17 16 15 14 14 15 16 15 16 16
8 7 10 9 8 6 6 7 8 6 3 6 12 4 4 4 4 2 3 2 5 7 6 7 8 9 11 10 11 13 13 12 15 17 17 17 16 15 16 17 17 18 18
6 8 10 10 9 7 8 7 7 6 5 8 4 1 2 7 5 3 2 3 3 3 6 8 9 9 8 9 13 14 17 17 14 13 15 18 19 20 20 20 19 19 21
8 8 10 11 10 7 8 10 9 6 5 6 4 4 4 4 3 4 3 3 2 3 3 10 8 9 9 6 9 12 17 18 17 15 14 12 19 20 20 21 21 21 21
7 8 12 10 11 10 10 10 9 9 8 5 5 5 5 4 4 4 4 8 9 5 4 3 4 5 6 5 8 11 18 19 19 18 18 18 17 17 20 22 22 23 23
7 11 11 11 10 11 10 10 9 9 10 8 7 7 5 4 4 6 4 5 4 2 3 4 4 4 4 5 7 10 16 18 18 18 18 18 19 20 20 20 22 24 24
8 9 12 12 11 12 10 10 8 7 7 8 10 8 6 8 5 5 5 5 3 1 2 4 5 5 5 5 6 12 8 17 16 16 17 18 18 20 21 21 22 22 22
9 8 7 11 12 12 13 12 9 10 10 9 8 8 6 2 2 4 3 5 6 5 7 4 3 6 4 5 7 6 7 11 16 16 17 18 19 19 17 17 20 21 22
10 9 7 9 12 13 12 11 8 9 9 6 7 8 8 6 4 3 3 2 2 4 4 7 6 5 6 7 8 8 7 11 14 17 19 19 19 19 22 24 23 22 23
8 8 6 5 10 11 12 11 10 9 10 9 7 9 9 8 7 5 5 6 5 4 7 2 3 5 3 5 7 7 10 11 9 17 17 18 20 21 20 21 22 25 26
7 8 8 8 5 7 9 11 11 10 11 10 10 9 9 6 9 9 8 9 8 7 6 10 6 4 5 5 5 5 7 5 6 11 17 17 19 20 21 21 20 21 20
7 8 8 10 10 9 8 8 9 9 9 9 9 10 10 9 9 7 8 8 8 7 7 5 7 4 5 4 4 6 5 6 6 10 12 17 21 21 22 22 16 14 13
6 8 7 9 8 9 9 8 8 9 9 8 9 10 9 10 10 10 9 9 8 7 7 7 8 8 6 4 4 5 5 4 6 9 14 17 13 2 16 9 11 10 8
6 6 6 8 6 5 3 7 10 9 9 7 8 10 10 12 14 13 9 10 11 9 7 7 5 5 6 5 6 6 8 7 7 3 4 5 8 7 9 13 11 14 15
5 5 7 8 9 7 9 7 1 7 8 7 8 8 9 11 13 14 15 11 8 9 7 6 7 8 9 7 6 7 9 7 3 6 4 3 4 7 7 7 12 14 17
5 3 4 12 11 8 12 9 5 3 6 7 7 6 5 6 8 3 6 6 4 11 2 3 6 2 2 4 1 1 1 2 0 4 3 1 3 6 4 6 13 16 16
11 10 10 10 10 10 14 10 6 5 10 10 9 7 6 7 7 5 4 10 11 12 8 7 8 7 5 3 1 3 2 1 3 4 5 2 2 3 3 4 15 15 15
12 11 11 12 11 11 17 12 1 10 11 12 11 11 8 8 11 6 4 10 10 11 16 22 21 19 20 19 13 3 3 1 1 3 6 2 3 3 2 2 2 10 10
11 10 13 12 16 14 20 17 11 8 11 8 9 10 17 11 13 11 5 10 10 6 6 8 7 12 13 14 17 10 4 3 1 3 4 2 2 2 2 1 1 3 2
Wind_Direction
183 186 192 165 180 157 159 150 154 155 168 171 198 221 235 200 164 139 155 154 140 150 160 157 159 155 156 149 144 148 152 146 155 143 142 139 147 142 134 129 135 135 139
177 193 182 184 165 162 162 158 160 165 175 176 204 230 248 184 144 145 150 152 144 153 164 163 163 162 163 156 153 147 152 162 162 156 153 146 153 138 139 142 149 152 158
176 185 186 189 158 158 155 168 168 166 173 188 206 216 243 175 165 159 157 147 150 160 168 170 167 165 165 157 152 152 158 169 170 165 162 161 163 157 154 159 169 175 178
187 171 177 180 179 158 169 169 167 172 187 193 192 215 235 195 158 152 150 151 156 166 173 165 165 164 165 165 165 163 183 183 182 176 174 178 172 173 174 178 185 190 195
208 172 185 191 185 173 169 170 175 178 184 184 189 208 220 202 167 150 147 154 160 161 164 169 164 162 169 170 174 174 188 191 194 186 189 185 185 186 189 194 199 201 204
201 194 180 182 186 161 156 174 183 194 192 186 182 183 226 217 163 153 157 159 165 162 166 159 168 171 176 175 178 179 195 200 203 200 200 198 194 198 199 205 211 215 216
196 195 181 180 141 160 161 172 179 191 209 188 158 141 103 339 102 138 145 150 146 160 147 161 164 169 187 180 183 189 196 207 208 208 206 210 204 204 207 212 216 222 225
183 182 151 146 141 153 163 176 182 177 191 174 152 104 143 46 26 97 125 158 173 167 165 166 176 177 176 185 191 196 202 212 212 212 212 211 213 212 211 217 225 229 233
164 156 149 149 153 165 173 175 173 167 147 156 148 128 145 153 124 34 166 167 181 170 167 164 183 189 180 185 185 194 201 218 219 214 207 210 212 216 219 222 228 233 236
181 161 148 156 157 168 167 172 169 153 134 156 140 132 59 128 133 132 236 244 202 205 179 183 188 202 202 185 187 187 198 206 213 223 217 211 209 211 217 223 225 231 235
176 156 155 156 163 171 168 169 171 166 153 166 170 128 66 65 62 123 149 205 242 235 245 184 192 199 208 176 170 194 194 201 208 212 221 232 225 219 221 226 225 230 234
164 175 164 172 167 180 173 167 167 163 169 159 156 147 161 142 178 194 188 182 200 207 219 259 203 180 190 173 186 191 188 198 206 210 214 219 223 232 229 230 232 233 235
179 174 174 175 176 178 175 165 175 176 171 179 174 178 183 188 172 203 185 184 161 171 195 235 238 203 196 181 202 199 188 194 201 209 216 219 223 228 230 234 236 237 239
177 174 171 178 178 177 170 170 175 177 171 186 191 191 185 207 200 196 205 146 119 136 171 216 222 232 199 197 205 196 187 193 200 209 216 221 224 229 232 235 240 242 244
170 161 164 169 177 184 184 176 181 187 186 191 195 195 199 166 183 170 157 163 154 159 211 205 210 225 201 193 210 191 201 198 206 211 217 223 226 229 231 234 239 241 240
153 155 173 184 177 177 167 171 175 181 178 187 196 179 187 195 182 176 162 155 157 147 193 203 203 210 219 216 224 214 216 226 219 217 221 225 227 228 231 232 233 235 237
131 137 151 166 164 176 169 172 173 176 186 187 188 199 187 181 188 187 185 194 185 167 214 235 161 219 204 215 225 209 222 225 224 216 225 226 228 234 239 243 239 236 236
135 147 152 156 168 153 165 170 172 177 184 193 192 197 204 194 195 192 191 196 203 194 192 216 220 221 207 215 224 216 228 224 214 213 219 232 233 231 231 236 242 248 251
146 149 163 161 166 166 168 162 162 163 177 183 187 194 199 192 198 191 196 197 195 194 204 215 229 220 239 220 236 226 214 230 236 230 233 239 234 229 230 235 257 282 276
150 157 166 161 158 166 172 179 173 173 183 191 193 195 197 197 203 198 197 199 200 204 207 218 229 239 226 223 222 225 250 219 232 235 233 240 224 357 49 51 47 24 10
157 139 130 139 135 146 93 187 180 184 189 189 191 194 196 201 200 204 206 211 209 205 209 213 220 240 250 251 244 258 262 259 251 298 298 19 60 54 46 48 44 56 67
151 158 159 160 161 74 6 30 200 185 184 191 199 203 203 206 217 212 213 217 208 207 212 203 218 226 229 230 232 245 249 257 256 44 36 81 58 74 51 56 52 53 52
145 110 83 93 81 57 9 12 27 178 82 69 63 50 69 56 35 5 215 254 317 52 84 282 279 305 317 41 21 247 74 97 246 27 347 210 59 81 70 67 63 64 67
57 54 52 69 78 42 12 360 343 100 84 68 53 42 59 52 27 359 63 85 69 49 38 60 69 68 58 28 267 336 355 47 85 60 344 138 119 87 75 62 64 72 69
69 63 58 51 46 39 18 0 45 92 89 78 60 50 58 47 6 335 142 113 96 87 72 78 80 72 59 45 21 148 69 17 87 81 15 13 56 76 45 50 55 78 67
75 77 72 59 46 42 26 32 63 94 91 83 66 57 54 62 50 41 86 128 108 98 93 74 63 56 54 46 46 42 8 92 44 85 8 45 82 132 123 172 90 37 46